Temp
-14 -14 -14 -13 -13 -13 -13 -13 -13 -13 -13 -13 -12 -12 -12 -12 -12 -11 -9 -9 -9 -9 -8 -8 -8 -8 -7 -8 -8 -7 -7 -8 -7 -7 -7 -7 -7 -7 -6 -5 -5 -5 -5 -6 -7 -6 -6 -3 -4 -4 -4 -4 -4 -3
-14 -14 -14 -14 -14 -14 -14 -14 -14 -13 -13 -13 -13 -13 -12 -12 -12 -11 -10 -9 -9 -9 -8 -8 -8 -7 -7 -8 -8 -8 -7 -6 -6 -7 -7 -7 -7 -7 -6 -6 -5 -5 -5 -5 -5 -4 -4 -4 -4 -4 -4 -4 -4 -3
-15 -15 -15 -15 -15 -14 -14 -14 -14 -14 -13 -13 -13 -13 -13 -12 -12 -11 -10 -9 -9 -9 -9 -9 -7 -8 -7 -8 -7 -7 -7 -6 -6 -7 -7 -7 -7 -7 -6 -6 -6 -5 -5 -5 -5 -5 -5 -5 -5 -5 -5 -4 -5 -4
-16 -16 -15 -15 -15 -15 -14 -14 -14 -14 -14 -14 -13 -13 -13 -12 -12 -11 -10 -9 -9 -9 -9 -8 -8 -8 -7 -8 -8 -8 -7 -7 -7 -7 -7 -7 -7 -7 -7 -7 -6 -6 -6 -5 -6 -5 -5 -4 -5 -4 -5 -4 -5 -4
-16 -16 -15 -15 -15 -15 -14 -14 -14 -14 -14 -13 -13 -13 -12 -12 -12 -11 -10 -9 -9 -9 -9 -9 -8 -8 -8 -8 -8 -8 -8 -7 -7 -8 -8 -7 -7 -7 -7 -7 -5 -5 -5 -5 -5 -5 -5 -5 -5 -5 -4 -5 -5 -5
-15 -15 -15 -15 -15 -14 -14 -14 -14 -14 -14 -13 -13 -12 -12 -12 -12 -11 -10 -10 -9 -9 -9 -8 -8 -8 -8 -8 -7 -7 -7 -8 -8 -8 -8 -8 -8 -8 -9 -8 -5 -5 -5 -6 -6 -6 -6 -5 -5 -5 -5 -5 -5 -5
-15 -14 -14 -14 -14 -14 -13 -13 -13 -14 -14 -13 -13 -13 -12 -11 -12 -11 -10 -9 -9 -9 -9 -9 -8 -8 -8 -8 -8 -8 -8 -8 -8 -8 -8 -8 -8 -9 -9 -7 -4 -5 -6 -6 -6 -6 -5 -6 -5 -5 -5 -5 -5 -5
-14 -14 -13 -13 -13 -13 -13 -13 -13 -13 -13 -13 -12 -12 -11 -12 -11 -10 -10 -9 -9 -9 -9 -9 -9 -8 -8 -8 -9 -8 -8 -8 -9 -8 -8 -7 -8 -9 -9 -5 -6 -6 -6 -6 -6 -7 -6 -6 -6 -6 -6 -6 -5 -5
-13 -13 -13 -13 -13 -13 -12 -12 -13 -12 -11 -11 -11 -11 -11 -10 -10 -10 -10 -10 -10 -10 -10 -10 -9 -9 -8 -8 -8 -9 -9 -8 -8 -8 -8 -9 -9 -9 -6 -7 -6 -6 -6 -7 -7 -7 -7 -6 -6 -6 -6 -6 -6 -6
-11 -11 -12 -13 -12 -11 -11 -11 -11 -11 -10 -11 -11 -11 -10 -10 -10 -10 -10 -10 -10 -10 -10 -9 -9 -9 -9 -9 -9 -9 -9 -9 -9 -8 -8 -9 -8 -7 -7 -7 -7 -7 -7 -7 -7 -7 -7 -7 -7 -7 -7 -6 -7 -7
-9 -8 -8 -9 -10 -10 -10 -10 -10 -10 -10 -10 -10 -10 -10 -10 -11 -11 -10 -10 -10 -10 -9 -9 -9 -9 -9 -9 -9 -9 -8 -8 -8 -8 -8 -8 -8 -7 -7 -7 -6 -7 -7 -7 -7 -7 -7 -7 -8 -8 -8 -7 -7 -7
-9 -9 -9 -9 -9 -10 -10 -10 -10 -10 -10 -10 -9 -10 -10 -11 -10 -10 -11 -10 -10 -10 -9 -9 -8 -8 -9 -9 -9 -9 -9 -8 -7 -7 -8 -7 -7 -8 -7 -7 -7 -7 -7 -7 -7 -7 -7 -8 -8 -8 -8 -8 -8 -7
-9 -9 -9 -10 -10 -10 -10 -10 -10 -10 -10 -10 -9 -10 -10 -10 -10 -10 -10 -10 -9 -9 -8 -8 -8 -8 -9 -9 -10 -9 -8 -8 -8 -7 -8 -7 -7 -7 -7 -7 -7 -7 -7 -7 -7 -7 -7 -8 -8 -8 -8 -8 -8 -8
-10 -10 -10 -10 -10 -10 -10 -10 -10 -10 -10 -10 -10 -10 -9 -9 -10 -9 -9 -9 -9 -9 -9 -9 -9 -9 -9 -9 -9 -9 -8 -8 -8 -7 -8 -7 -7 -7 -7 -7 -7 -7 -7 -7 -7 -8 -8 -8 -8 -8 -8 -8 -8 -9
-10 -10 -10 -10 -10 -10 -10 -10 -10 -10 -10 -10 -10 -9 -10 -9 -9 -9 -9 -9 -9 -9 -9 -9 -8 -8 -9 -9 -9 -9 -8 -8 -8 -8 -8 -7 -7 -7 -7 -7 -7 -7 -8 -8 -8 -8 -8 -8 -8 -8 -9 -9 -8 -8
-10 -10 -10 -10 -11 -11 -10 -10 -10 -10 -10 -10 -10 -10 -10 -10 -10 -9 -9 -9 -9 -9 -9 -9 -9 -9 -9 -9 -9 -9 -9 -9 -8 -7 -8 -8 -8 -8 -8 -8 -8 -8 -9 -9 -9 -9 -9 -8 -8 -8 -9 -9 -9 -9
-11 -11 -11 -11 -11 -11 -11 -11 -11 -11 -11 -11 -10 -10 -10 -9 -10 -10 -10 -9 -9 -9 -9 -9 -9 -9 -9 -9 -9 -9 -9 -8 -8 -8 -8 -8 -8 -8 -8 -8 -9 -9 -9 -9 -9 -9 -9 -9 -9 -9 -9 -9 -9 -10
-11 -11 -11 -11 -11 -11 -11 -11 -11 -11 -11 -10 -10 -10 -9 -9 -10 -10 -10 -10 -10 -10 -9 -9 -9 -9 -9 -9 -9 -9 -9 -9 -8 -8 -8 -8 -8 -8 -8 -9 -9 -9 -10 -10 -10 -10 -10 -10 -10 -10 -10 -10 -10 -10
-12 -12 -12 -12 -11 -11 -11 -12 -11 -11 -11 -11 -11 -10 -10 -10 -10 -10 -10 -10 -10 -9 -9 -9 -9 -9 -9 -9 -9 -9 -9 -8 -9 -9 -8 -9 -9 -9 -9 -9 -9 -10 -10 -10 -10 -10 -10 -10 -11 -11 -11 -11 -11 -11
-12 -12 -12 -12 -12 -12 -11 -11 -11 -11 -11 -11 -11 -11 -11 -11 -10 -10 -10 -10 -10 -10 -9 -9 -9 -10 -9 -9 -9 -8 -8 -9 -9 -9 -9 -9 -9 -10 -10 -10 -10 -10 -10 -11 -11 -11 -11 -11 -11 -11 -11 -11 -11 -11
-12 -12 -12 -12 -12 -12 -12 -12 -12 -12 -12 -11 -11 -11 -11 -11 -11 -10 -10 -10 -10 -10 -10 -10 -10 -10 -10 -10 -9 -9 -9 -9 -9 -10 -10 -10 -10 -10 -11 -11 -11 -11 -11 -11 -11 -11 -11 -11 -11 -11 -12 -12 -12 -11
-12 -12 -12 -12 -12 -12 -12 -12 -12 -12 -12 -12 -12 -12 -11 -11 -11 -11 -11 -11 -11 -10 -10 -10 -10 -10 -10 -10 -10 -10 -10 -11 -11 -11 -11 -11 -11 -11 -11 -11 -11 -12 -12 -12 -12 -12 -12 -12 -12 -12 -12 -12 -12 -12
-12 -12 -12 -12 -12 -11 -11 -12 -12 -12 -13 -12 -12 -12 -12 -12 -12 -11 -11 -11 -11 -11 -11 -11 -11 -11 -11 -11 -11 -11 -11 -11 -11 -11 -11 -11 -11 -11 -11 -11 -11 -12 -12 -12 -12 -12 -12 -13 -13 -13 -13 -13 -13 -13
-12 -12 -12 -12 -12 -12 -12 -12 -12 -12 -12 -13 -13 -13 -13 -13 -12 -12 -12 -12 -12 -11 -11 -11 -12 -11 -11 -11 -11 -12 -12 -12 -12 -12 -11 -11 -11 -12 -12 -12 -12 -12 -13 -13 -13 -13 -13 -13 -13 -14 -14 -14 -14 -14
-12 -12 -13 -13 -13 -13 -13 -12 -12 -13 -13 -13 -13 -13 -13 -12 -12 -12 -12 -11 -11 -11 -11 -12 -12 -12 -12 -12 -12 -12 -12 -12 -12 -12 -12 -12 -12 -12 -13 -13 -13 -13 -14 -14 -14 -14 -14 -14 -14 -14 -14 -14 -14 -14
-13 -13 -13 -13 -13 -13 -14 -13 -13 -13 -13 -13 -13 -13 -13 -13 -13 -12 -11 -11 -11 -11 -11 -11 -11 -11 -11 -12 -12 -12 -12 -12 -13 -13 -13 -13 -13 -13 -13 -14 -14 -14 -14 -14 -14 -14 -14 -14 -14 -14 -14 -15 -15 -15
-14 -14 -14 -14 -14 -14 -14 -14 -14 -14 -14 -14 -14 -14 -13 -13 -13 -13 -12 -12 -12 -12 -12 -12 -12 -13 -13 -13 -13 -14 -13 -13 -13 -13 -13 -14 -14 -14 -14 -15 -15 -15 -15 -15 -15 -15 -15 -15 -15 -15 -15 -15 -16 -16
-14 -14 -14 -14 -14 -15 -15 -15 -15 -15 -15 -15 -14 -14 -14 -14 -14 -14 -14 -14 -14 -14 -13 -13 -13 -13 -13 -13 -14 -14 -14 -14 -14 -14 -15 -15 -15 -15 -15 -15 -15 -15 -15 -15 -15 -15 -15 -15 -15 -16 -16 -16 -17 -17
-14 -14 -14 -15 -15 -15 -16 -17 -16 -16 -16 -16 -15 -15 -15 -15 -15 -15 -15 -15 -15 -15 -15 -14 -14 -14 -14 -14 -14 -15 -15 -15 -15 -15 -15 -15 -16 -16 -16 -16 -16 -16 -16 -16 -15 -15 -16 -16 -17 -17 -17 -18 -18 -18
-14 -14 -14 -15 -16 -16 -17 -17 -17 -17 -17 -16 -17 -17 -16 -16 -17 -16 -16 -16 -16 -16 -16 -16 -15 -15 -15 -15 -15 -16 -16 -16 -16 -16 -16 -16 -16 -16 -16 -16 -16 -16 -16 -16 -16 -17 -17 -17 -17 -18 -18 -19 -19 -19
-14 -14 -15 -16 -16 -17 -17 -17 -17 -17 -17 -18 -17 -17 -18 -18 -18 -18 -17 -17 -17 -17 -17 -17 -17 -16 -16 -16 -16 -17 -17 -17 -17 -17 -17 -17 -17 -17 -17 -17 -17 -17 -17 -17 -17 -18 -18 -18 -19 -19 -20 -20 -20 -20
-14 -15 -15 -15 -16 -16 -17 -17 -17 -17 -18 -18 -18 -18 -18 -18 -19 -18 -18 -18 -18 -18 -17 -17 -17 -17 -17 -17 -17 -17 -17 -17 -17 -17 -17 -17 -17 -17 -18 -18 -18 -18 -18 -18 -19 -19 -19 -20 -20 -20 -21 -21 -21 -21
-15 -15 -15 -15 -16 -16 -16 -17 -17 -19 -19 -19 -19 -19 -19 -19 -19 -19 -19 -19 -19 -19 -19 -18 -18 -18 -18 -18 -18 -18 -18 -18 -18 -18 -18 -18 -18 -18 -19 -19 -19 -19 -19 -20 -20 -20 -21 -21 -21 -21 -21 -22 -22 -22
Height
2899 2904 2908 2912 2917 2920 2922 2924 2928 2932 2937 2942 2947 2953 2959 2964 2970 2974 2980 2986 2993 2994 2999 3002 3004 3004 3007 3009 3011 3015 3019 3018 3021 3023 3024 3026 3025 3025 3024 3023 3024 3023 3023 3021 3025 3025 3021 3018 3019 3020 3019 3016 3015 3014
2890 2894 2899 2903 2906 2909 2912 2916 2919 2924 2929 2934 2940 2946 2952 2959 2964 2969 2973 2979 2986 2988 2993 2996 2998 3000 3003 3006 3009 3012 3014 3015 3017 3018 3019 3021 3021 3021 3020 3017 3016 3017 3016 3016 3017 3015 3016 3015 3014 3014 3013 3009 3009 3009
2879 2884 2889 2893 2896 2900 2904 2908 2912 2916 2921 2927 2933 2940 2946 2952 2958 2963 2969 2974 2979 2982 2987 2990 2993 2996 2997 3000 3004 3008 3009 3011 3012 3013 3014 3016 3016 3015 3014 3012 3011 3010 3010 3009 3010 3010 3009 3010 3011 3009 3007 3006 3005 3005
2870 2875 2880 2884 2888 2893 2897 2901 2905 2910 2916 2922 2928 2934 2940 2946 2952 2958 2964 2970 2976 2979 2983 2986 2988 2990 2995 2996 3001 3004 3006 3007 3009 3010 3009 3010 3011 3010 3009 3008 3007 3008 3006 3005 3003 3004 3004 3004 3004 3003 3003 3001 2999 3000
2863 2868 2872 2877 2881 2886 2890 2895 2900 2905 2911 2916 2922 2928 2935 2941 2947 2954 2960 2965 2971 2978 2979 2982 2986 2989 2991 2993 2996 2999 3001 3002 3003 3004 3004 3006 3005 3007 3004 3002 2999 3003 3003 3002 2999 3000 2998 2997 2997 2996 2996 2995 2995 2995
2859 2863 2867 2871 2876 2881 2885 2890 2895 2900 2906 2911 2916 2922 2929 2937 2945 2953 2957 2958 2968 2971 2977 2978 2981 2984 2986 2988 2990 2992 2993 2996 2996 2997 2999 2998 2999 3002 2999 2994 2993 2996 2998 2997 2995 2994 2992 2991 2991 2989 2988 2988 2988 2990
2854 2858 2862 2867 2871 2876 2880 2885 2890 2895 2899 2904 2912 2918 2925 2935 2942 2946 2953 2958 2965 2971 2973 2976 2977 2979 2981 2982 2984 2986 2986 2987 2991 2991 2991 2991 2991 2994 2991 2986 2986 2990 2991 2989 2988 2987 2986 2986 2986 2985 2984 2983 2983 2983
2848 2851 2856 2860 2865 2870 2874 2879 2883 2888 2893 2899 2907 2916 2926 2933 2939 2948 2952 2959 2963 2968 2971 2972 2974 2977 2978 2978 2980 2981 2982 2984 2984 2985 2984 2984 2985 2985 2983 2979 2982 2983 2982 2981 2981 2981 2980 2980 2980 2978 2978 2977 2976 2977
2838 2843 2848 2853 2858 2863 2868 2873 2880 2884 2889 2896 2907 2918 2928 2934 2940 2945 2949 2956 2961 2967 2966 2967 2972 2974 2975 2975 2977 2979 2979 2978 2979 2978 2978 2980 2977 2973 2973 2976 2975 2976 2976 2977 2977 2976 2976 2975 2974 2972 2971 2970 2970 2971
2835 2839 2842 2848 2855 2860 2865 2873 2880 2886 2893 2899 2910 2921 2928 2935 2940 2946 2952 2956 2960 2961 2962 2965 2968 2971 2973 2972 2973 2975 2974 2974 2972 2971 2972 2968 2963 2964 2968 2969 2969 2970 2971 2972 2971 2971 2970 2969 2968 2966 2965 2965 2965 2966
2841 2844 2848 2851 2857 2864 2871 2876 2884 2892 2900 2907 2913 2922 2930 2937 2944 2948 2952 2955 2957 2958 2959 2960 2964 2965 2968 2969 2970 2969 2968 2968 2965 2962 2963 2960 2956 2956 2959 2961 2964 2965 2966 2966 2965 2964 2964 2963 2963 2961 2960 2959 2961 2961
2857 2860 2862 2866 2871 2877 2884 2891 2899 2906 2910 2916 2918 2925 2933 2940 2944 2948 2950 2953 2953 2955 2954 2954 2957 2959 2962 2964 2965 2965 2964 2963 2957 2952 2954 2953 2951 2953 2955 2957 2959 2961 2961 2960 2959 2958 2957 2956 2957 2957 2957 2958 2958 2958
2872 2875 2879 2884 2888 2894 2899 2905 2910 2916 2920 2924 2929 2932 2938 2941 2942 2944 2944 2946 2948 2948 2949 2950 2952 2954 2956 2960 2961 2962 2957 2953 2952 2949 2947 2948 2950 2952 2954 2955 2956 2956 2955 2954 2953 2952 2950 2950 2951 2953 2953 2954 2955 2954
2888 2891 2893 2897 2900 2904 2908 2912 2916 2920 2924 2927 2930 2934 2937 2937 2939 2939 2940 2942 2945 2946 2947 2948 2949 2950 2949 2952 2954 2954 2953 2952 2949 2946 2944 2945 2947 2948 2950 2951 2951 2950 2949 2949 2948 2947 2946 2946 2946 2947 2948 2949 2950 2950
2899 2901 2903 2906 2909 2911 2914 2917 2920 2924 2926 2929 2932 2933 2933 2933 2934 2935 2937 2939 2940 2942 2943 2944 2943 2943 2943 2946 2947 2948 2947 2945 2943 2941 2942 2943 2945 2946 2947 2947 2947 2947 2946 2946 2945 2944 2943 2943 2943 2943 2944 2944 2945 2945
2906 2907 2909 2911 2913 2916 2918 2920 2923 2925 2927 2929 2930 2930 2930 2931 2932 2932 2934 2935 2936 2937 2938 2939 2937 2939 2939 2940 2940 2940 2941 2939 2938 2939 2941 2942 2943 2944 2945 2945 2945 2945 2944 2944 2943 2942 2941 2940 2940 2940 2940 2940 2940 2941
2910 2912 2913 2914 2916 2918 2920 2922 2923 2925 2927 2927 2927 2928 2928 2929 2929 2929 2928 2930 2930 2931 2932 2932 2932 2933 2935 2935 2936 2936 2936 2937 2937 2938 2939 2940 2942 2942 2942 2942 2942 2943 2942 2942 2941 2941 2940 2939 2938 2938 2937 2938 2938 2938
2915 2916 2916 2917 2918 2919 2921 2922 2923 2924 2924 2924 2925 2926 2926 2925 2925 2925 2924 2924 2925 2926 2928 2928 2929 2930 2930 2931 2931 2932 2933 2934 2936 2937 2938 2939 2940 2940 2940 2940 2940 2940 2940 2940 2940 2939 2938 2937 2937 2936 2936 2936 2936 2935
2919 2919 2920 2921 2921 2921 2922 2922 2923 2922 2922 2922 2922 2922 2922 2922 2923 2922 2921 2922 2922 2923 2924 2925 2926 2926 2928 2928 2930 2931 2932 2932 2934 2935 2936 2937 2937 2938 2938 2938 2937 2937 2937 2937 2937 2936 2936 2935 2934 2934 2933 2933 2933 2933
2920 2921 2921 2921 2921 2921 2921 2922 2922 2921 2920 2920 2920 2920 2920 2920 2920 2920 2920 2920 2921 2922 2922 2923 2924 2926 2927 2928 2929 2929 2930 2931 2933 2934 2935 2935 2935 2935 2935 2934 2934 2934 2934 2934 2934 2933 2933 2932 2932 2931 2931 2930 2930 2929
2923 2923 2922 2922 2921 2921 2921 2920 2920 2920 2919 2918 2918 2918 2918 2918 2919 2919 2919 2919 2919 2920 2920 2921 2922 2924 2925 2926 2927 2928 2929 2929 2930 2931 2932 2932 2932 2932 2932 2932 2931 2931 2932 2931 2931 2931 2930 2930 2929 2928 2928 2927 2926 2925
2924 2924 2922 2921 2920 2919 2918 2918 2918 2918 2918 2917 2917 2916 2916 2916 2916 2917 2917 2917 2918 2918 2919 2919 2920 2921 2921 2922 2924 2925 2926 2927 2927 2928 2928 2929 2929 2929 2929 2928 2929 2928 2928 2928 2927 2927 2926 2926 2925 2924 2923 2922 2920 2919
2924 2923 2922 2921 2920 2918 2919 2917 2917 2916 2916 2916 2915 2915 2915 2915 2915 2915 2915 2915 2916 2916 2917 2917 2918 2919 2919 2920 2922 2923 2924 2924 2925 2926 2926 2926 2926 2926 2925 2925 2925 2924 2924 2923 2922 2921 2921 2920 2919 2918 2916 2915 2914 2913
2921 2920 2919 2919 2917 2917 2916 2915 2915 2915 2915 2914 2914 2914 2913 2913 2913 2912 2911 2912 2913 2913 2914 2914 2914 2916 2917 2917 2919 2919 2921 2922 2922 2923 2923 2923 2923 2923 2922 2922 2921 2920 2920 2919 2918 2916 2915 2914 2913 2911 2909 2908 2907 2906
2920 2919 2918 2916 2915 2915 2914 2913 2913 2913 2913 2913 2912 2912 2912 2912 2911 2910 2909 2910 2910 2910 2910 2910 2911 2912 2914 2915 2916 2917 2918 2919 2919 2919 2919 2919 2920 2920 2919 2918 2917 2917 2916 2915 2914 2913 2911 2910 2908 2906 2904 2903 2901 2899
2916 2915 2915 2914 2913 2913 2912 2912 2912 2911 2910 2910 2910 2909 2909 2909 2908 2907 2906 2907 2908 2908 2908 2909 2909 2910 2911 2913 2913 2913 2914 2915 2915 2915 2915 2915 2915 2916 2916 2915 2914 2914 2913 2911 2910 2908 2906 2904 2902 2899 2897 2895 2893 2890
2915 2914 2913 2913 2912 2911 2910 2909 2909 2909 2908 2908 2907 2907 2907 2906 2904 2903 2903 2903 2904 2904 2904 2904 2905 2906 2907 2908 2908 2908 2908 2910 2910 2910 2910 2910 2910 2910 2911 2910 2909 2908 2907 2905 2903 2901 2899 2896 2894 2891 2889 2886 2883 2880
2914 2911 2910 2909 2906 2905 2905 2905 2905 2905 2904 2904 2904 2903 2902 2902 2902 2901 2901 2901 2900 2900 2900 2900 2900 2900 2900 2900 2901 2902 2903 2903 2904 2905 2905 2906 2906 2906 2905 2904 2903 2901 2900 2898 2896 2893 2890 2887 2884 2881 2878 2875 2872 2870
2911 2908 2906 2903 2902 2901 2900 2901 2901 2901 2901 2901 2900 2900 2898 2897 2897 2897 2896 2896 2897 2897 2896 2896 2895 2895 2895 2895 2895 2896 2897 2897 2898 2899 2900 2901 2901 2901 2899 2898 2896 2894 2892 2889 2887 2884 2880 2877 2875 2872 2869 2866 2864 2862
2908 2905 2903 2900 2899 2898 2899 2898 2897 2896 2896 2895 2895 2894 2893 2892 2892 2891 2890 2890 2890 2890 2890 2889 2889 2890 2890 2890 2890 2891 2891 2892 2892 2893 2893 2894 2893 2893 2892 2891 2889 2887 2884 2881 2878 2875 2871 2869 2867 2865 2863 2860 2858 2856
2906 2903 2901 2898 2897 2896 2893 2892 2892 2891 2891 2890 2888 2888 2887 2885 2884 2883 2883 2883 2882 2882 2882 2882 2882 2883 2884 2885 2885 2885 2885 2886 2886 2886 2886 2885 2885 2885 2884 2882 2881 2878 2876 2873 2871 2868 2866 2863 2861 2859 2857 2856 2854 2852
2904 2902 2899 2896 2895 2892 2889 2887 2886 2885 2885 2884 2883 2882 2881 2879 2878 2877 2876 2876 2875 2875 2875 2875 2876 2876 2876 2878 2878 2879 2879 2880 2880 2880 2880 2880 2879 2878 2876 2874 2873 2870 2869 2867 2865 2863 2861 2859 2858 2856 2854 2852 2850 2849
2902 2899 2897 2894 2891 2888 2886 2884 2881 2880 2879 2878 2877 2876 2875 2874 2872 2871 2870 2869 2869 2868 2868 2869 2869 2869 2869 2870 2871 2872 2872 2873 2873 2873 2873 2873 2872 2871 2870 2868 2867 2865 2864 2862 2861 2860 2858 2857 2855 2853 2851 2849 2847 2845
Wind_Speed
36 34 33 33 32 33 35 37 37 35 33 33 32 30 30 28 31 36 41 40 38 34 38 28 24 27 23 24 25 22 21 26 21 23 22 20 15 17 15 23 20 17 13 20 25 13 14 16 7 12 14 19 22 18
31 31 32 32 32 31 30 30 31 32 32 31 32 32 32 30 31 35 41 38 39 45 33 33 24 23 27 29 24 20 21 24 24 23 27 18 18 15 16 11 6 19 22 15 14 11 12 12 13 16 21 14 9 16
34 33 34 34 29 28 28 29 29 30 31 30 30 30 31 32 32 39 36 33 28 46 43 22 29 19 26 32 29 28 26 25 21 16 22 18 17 15 17 16 18 10 9 19 18 21 21 23 24 26 21 16 14 18
31 31 30 27 27 28 27 27 27 27 27 28 28 28 30 34 34 43 34 33 35 34 40 21 29 29 22 18 23 25 25 23 22 21 19 22 23 18 17 13 16 17 18 22 25 17 15 14 16 17 16 15 11 13
23 25 25 26 27 27 26 25 26 26 27 26 28 29 31 34 34 38 35 28 31 31 15 27 23 24 30 26 23 25 27 28 28 28 30 28 28 26 29 32 35 26 20 18 24 19 20 21 22 24 24 17 17 14
21 23 23 24 23 22 22 24 24 25 27 26 27 31 35 33 33 30 37 33 32 21 22 8 16 21 23 24 26 27 33 36 34 33 28 31 34 32 25 33 34 26 19 12 20 25 28 27 22 22 16 16 20 19
21 21 22 22 22 23 23 23 23 23 25 21 22 29 32 35 36 33 30 34 29 22 20 16 16 17 14 13 25 24 21 29 31 33 36 36 38 30 31 35 32 22 18 21 23 23 22 17 17 19 17 13 15 16
21 22 23 24 25 25 25 25 27 26 22 20 23 31 31 36 34 30 35 31 25 19 15 8 6 9 10 18 15 24 22 21 20 22 27 29 27 27 27 32 24 18 21 19 16 17 19 19 19 18 18 21 20 17
24 26 25 25 25 26 24 24 22 21 20 27 36 43 35 37 38 23 26 26 24 23 16 14 14 12 11 15 19 20 20 18 22 26 30 27 27 22 30 19 17 15 17 15 16 17 19 21 20 19 19 18 18 17
11 17 23 24 18 18 25 26 31 25 37 49 48 44 41 36 34 28 22 21 19 23 28 26 21 19 15 11 20 17 15 18 16 24 23 29 35 30 23 25 28 26 23 21 20 21 23 22 22 22 18 16 14 15
28 30 40 39 35 36 37 38 43 47 49 51 51 38 36 30 28 22 13 13 11 13 20 28 25 21 19 21 15 13 7 8 10 18 16 9 19 23 26 27 24 18 18 19 20 23 25 23 17 13 9 8 7 9
33 35 37 34 38 38 37 44 43 43 43 40 40 35 32 25 14 9 8 9 8 13 15 10 15 18 19 17 15 6 10 8 10 12 13 7 15 14 13 15 18 18 19 20 21 21 19 18 19 16 10 9 11 11
39 43 45 42 42 43 42 40 37 34 34 28 26 27 19 13 10 10 12 12 12 11 8 7 11 17 20 23 13 8 7 7 6 6 4 7 8 9 12 14 15 17 17 17 18 19 17 17 19 19 19 17 13 14
33 33 33 32 32 32 32 30 29 30 26 26 16 12 7 7 8 14 18 18 15 12 11 13 16 11 18 16 11 8 9 7 4 5 7 6 8 11 11 11 12 13 13 13 12 11 11 12 14 18 19 18 19 18
23 23 23 23 23 23 23 23 23 22 22 11 9 7 10 11 12 11 16 16 18 17 16 17 21 20 19 12 10 9 6 6 7 8 8 4 9 9 8 8 8 7 7 7 8 8 8 10 11 14 16 17 16 17
15 17 18 18 18 17 17 16 18 18 18 9 7 6 7 11 14 14 13 13 16 17 18 24 11 8 9 7 8 9 5 6 7 8 9 7 7 7 6 6 6 5 5 5 6 7 8 8 8 9 10 11 12 12
10 8 11 13 13 13 13 13 13 15 11 8 7 11 10 12 12 12 15 15 16 17 16 11 7 8 7 7 8 9 8 6 4 5 6 7 6 6 5 5 6 6 5 5 6 7 7 7 7 7 7 7 8 9
9 10 10 10 9 8 8 8 7 7 9 13 13 12 11 11 12 12 11 10 9 14 19 13 9 9 6 7 10 10 12 10 9 8 7 6 5 5 5 6 7 8 9 9 8 8 8 8 8 8 8 8 9 10
10 10 9 8 7 5 5 5 5 2 5 8 10 11 8 7 8 8 7 6 5 10 13 8 5 10 6 6 5 7 10 11 10 9 7 5 5 5 6 7 8 9 10 11 11 11 9 8 8 9 9 9 10 11
9 7 6 3 2 1 2 2 4 3 3 4 4 5 4 3 6 6 5 6 8 7 8 6 5 8 4 4 7 7 5 7 7 6 5 6 7 7 7 7 8 9 10 10 10 9 8 8 8 8 8 9 9 10
6 4 3 3 3 3 3 3 4 4 5 6 6 7 9 7 5 4 5 6 8 8 7 7 6 6 6 8 8 7 7 8 8 7 6 7 7 7 7 6 6 6 6 7 8 9 9 9 10 11 11 11 12 14
5 4 5 6 7 6 4 5 5 5 6 7 7 5 5 5 7 9 9 8 7 5 5 4 6 7 8 10 10 8 7 7 7 7 7 6 6 7 8 9 10 11 12 13 15 16 16 17 18 18 20 21 20 20
8 8 8 9 7 4 4 4 4 4 3 4 4 4 6 8 8 6 6 7 7 6 7 8 10 10 10 10 10 9 9 9 8 7 8 8 8 8 9 11 12 13 14 15 17 18 18 18 19 21 22 23 23 23
12 11 9 5 5 5 7 6 8 7 7 7 4 7 8 8 7 8 11 10 8 8 8 11 15 15 14 13 10 9 8 7 7 7 7 7 8 8 10 10 11 11 12 13 14 15 15 16 17 18 19 20 20 20
8 6 5 7 7 7 6 8 9 11 12 10 11 11 7 6 7 9 11 6 8 7 6 6 6 8 8 9 9 8 7 7 7 8 9 10 10 9 9 10 11 11 11 12 14 15 16 17 19 21 22 22 22 23
3 3 4 3 4 6 6 6 5 7 9 10 9 9 9 8 9 8 11 9 8 9 9 11 13 12 12 11 12 13 13 11 11 12 12 12 12 10 10 10 12 12 14 15 17 19 21 23 25 27 28 28 28 28
3 4 6 8 9 10 10 10 10 11 11 9 10 10 9 6 8 10 11 11 10 10 10 12 14 17 17 16 16 16 17 15 15 15 15 14 13 13 13 14 16 17 18 20 21 23 25 27 28 29 29 29 29 29
12 14 15 13 13 14 14 12 10 10 9 11 12 11 7 6 8 8 8 9 9 10 11 12 13 14 15 16 19 20 19 18 17 16 15 14 13 14 15 17 18 20 22 24 26 28 30 31 31 30 29 29 28 27
15 15 14 12 11 8 6 3 5 9 12 13 14 14 13 11 12 13 15 16 16 15 15 15 15 15 15 14 15 17 18 18 17 17 16 14 14 15 17 20 22 23 25 27 30 30 29 28 26 24 24 23 23 22
17 16 14 11 8 5 4 9 14 15 15 16 16 15 16 18 19 20 21 21 20 19 19 19 18 17 16 14 13 13 14 15 16 18 18 18 18 20 21 22 25 27 28 29 28 26 26 25 23 20 19 19 18 17
16 15 15 13 11 10 14 16 16 16 17 18 19 18 18 19 20 20 20 19 18 18 17 17 18 18 17 14 13 14 16 16 17 17 19 20 21 22 24 25 25 27 26 24 23 22 21 20 19 17 15 14 13 13
16 16 16 16 13 12 13 14 13 13 11 13 13 15 17 17 16 17 18 18 17 17 17 17 19 20 19 18 17 18 19 19 19 19 19 21 22 23 24 24 22 21 20 19 17 15 13 13 12 12 13 13 13 13
16 16 17 17 16 16 17 15 12 12 15 17 18 17 15 15 13 13 13 15 17 17 16 15 15 16 17 18 18 17 18 18 19 19 19 20 20 18 17 16 16 15 13 12 10 10 10 11 11 11 11 12 12 13
Wind_Direction
238 239 241 244 251 257 262 261 256 251 243 239 237 233 230 225 219 218 213 217 231 234 232 249 241 229 239 221 223 223 207 220 228 239 243 243 249 257 262 257 245 235 231 229 223 230 256 287 272 257 283 296 304 295
238 239 241 246 250 253 250 245 239 235 235 235 231 227 224 219 215 213 214 220 219 237 228 225 233 224 228 219 222 229 232 244 236 236 243 241 235 237 242 258 265 237 240 245 230 233 240 264 266 269 283 300 293 287
240 236 237 239 243 241 236 234 233 231 228 224 221 218 215 211 211 206 213 214 215 218 223 231 224 239 214 211 211 223 227 229 239 244 237 236 230 253 259 261 256 247 263 243 242 252 254 257 274 276 287 288 287 287
229 228 230 232 232 231 229 226 224 219 217 215 212 208 212 208 208 209 209 213 200 212 218 237 220 234 237 209 208 222 235 245 254 253 248 243 252 260 255 262 276 284 295 303 303 313 298 295 286 288 294 288 276 285
221 224 221 224 225 225 222 220 214 213 213 214 214 214 209 204 207 206 206 217 216 205 232 220 218 226 239 244 245 240 242 245 251 254 254 257 259 263 271 279 277 279 278 288 287 296 289 294 295 288 297 295 264 278
220 224 224 223 222 219 218 215 213 214 218 228 217 212 206 202 202 196 209 225 196 200 212 191 220 228 232 235 242 246 241 244 250 256 257 258 261 266 274 273 274 275 285 280 284 280 279 286 297 290 288 294 255 263
225 223 219 217 215 213 213 217 218 219 230 211 195 205 198 197 191 199 195 194 196 207 210 231 239 234 240 245 226 238 239 237 241 245 253 256 261 263 267 267 277 290 284 269 272 278 281 281 284 292 279 264 258 263
225 224 220 217 215 216 218 216 220 219 222 211 200 188 183 191 188 201 208 191 195 199 207 217 213 228 236 225 229 226 228 233 243 244 251 256 261 258 263 272 286 282 278 278 274 279 284 288 288 288 278 273 272 262
221 223 218 215 216 217 208 207 213 199 171 174 164 163 169 188 180 156 174 193 201 217 227 230 228 243 245 238 232 232 227 232 240 247 249 253 254 245 266 279 261 275 272 263 284 275 280 289 291 287 275 270 261 251
175 195 201 201 188 172 176 173 162 155 156 156 151 161 166 172 175 179 181 193 208 219 231 236 239 239 241 236 226 234 239 241 242 257 255 248 254 264 266 264 257 272 273 277 280 274 281 287 293 286 263 257 246 242
111 129 130 135 139 146 142 147 143 146 142 147 152 152 159 163 169 174 187 198 213 230 245 249 244 248 237 238 243 208 229 230 239 251 224 232 260 260 247 251 264 264 274 276 277 279 282 285 273 257 279 283 265 273
121 124 117 119 124 132 136 142 137 145 148 152 153 152 155 160 174 181 184 200 215 224 234 241 229 229 222 226 243 248 239 233 241 224 189 219 233 233 242 245 253 263 271 277 278 278 278 269 257 241 239 277 270 259
107 112 118 121 127 133 138 141 148 153 155 155 156 152 164 168 184 191 198 199 210 216 225 229 234 226 230 233 228 232 263 236 243 214 194 222 207 224 239 245 254 266 274 277 277 278 271 260 251 250 253 253 268 267
106 112 118 122 128 135 142 149 153 157 158 161 162 170 180 196 209 213 223 230 227 234 245 253 257 249 222 206 200 214 231 244 251 242 236 230 193 218 242 259 268 275 278 276 277 281 276 266 256 249 254 263 264 267
110 118 125 131 137 143 148 154 163 173 178 173 178 193 211 210 220 230 233 230 233 240 245 255 241 199 195 191 196 209 214 220 218 233 249 243 223 232 257 271 279 283 277 272 278 281 282 279 270 263 259 258 258 261
120 131 137 139 145 152 160 169 177 186 195 200 208 220 232 238 243 247 248 246 245 248 258 259 212 211 200 202 198 200 204 222 232 242 233 234 229 242 258 271 273 270 273 287 297 298 293 283 280 274 266 258 254 250
118 137 146 152 160 169 173 178 187 197 202 219 232 233 258 258 278 268 260 256 258 246 233 223 209 185 186 202 200 195 217 225 227 229 220 214 220 246 255 257 254 254 263 287 313 314 305 295 285 276 266 261 256 252
131 137 139 145 153 161 170 182 190 212 227 237 239 241 256 284 257 265 270 239 238 218 225 205 189 183 192 202 206 218 221 225 236 228 208 216 231 244 255 257 256 254 259 269 290 306 309 298 286 278 271 267 263 259
111 126 128 129 120 124 165 179 194 218 235 247 244 244 267 259 254 263 255 232 243 213 202 188 186 201 199 194 171 242 247 243 216 210 209 217 247 274 280 277 271 266 266 271 285 294 294 286 278 277 275 271 269 267
70 75 80 84 77 333 230 226 237 252 266 271 267 255 246 255 245 259 257 254 219 192 187 193 175 148 130 214 248 250 212 191 198 213 242 269 278 282 282 279 273 271 274 280 284 287 287 287 285 277 275 275 272 269
45 44 25 342 319 305 269 253 260 274 284 278 271 268 257 254 257 252 253 256 251 256 264 267 273 249 250 239 245 254 247 243 248 260 269 276 278 280 281 279 276 272 272 274 278 283 284 283 283 284 284 282 281 282
347 340 335 332 325 307 271 253 249 269 277 270 283 285 252 269 267 259 254 257 261 262 251 263 234 229 227 235 235 232 231 243 256 262 268 270 273 278 282 283 282 282 282 282 281 281 282 283 283 282 284 284 284 284
310 306 309 311 303 283 273 265 246 258 267 302 275 254 260 273 278 271 259 257 259 258 256 247 238 229 226 231 235 234 233 229 231 246 262 274 282 286 289 290 292 291 290 289 289 289 289 286 284 284 284 283 285 286
288 288 295 274 252 261 276 264 255 256 265 267 273 263 272 275 279 264 255 258 263 259 257 247 239 241 244 245 236 223 221 231 241 252 269 281 289 297 298 299 299 299 302 305 307 308 308 306 304 299 295 295 295 295
297 277 247 253 256 263 271 271 266 262 266 276 256 254 271 281 268 259 266 250 235 253 246 234 221 217 220 228 236 240 243 246 257 271 279 286 292 296 296 296 299 306 310 311 310 310 311 309 306 304 302 304 302 298
269 249 245 263 287 275 275 281 287 285 283 275 263 258 269 271 256 248 262 278 271 258 251 242 242 243 246 237 239 248 251 254 259 265 272 278 283 284 287 288 293 299 302 304 306 306 306 304 303 302 301 301 299 297
306 292 315 308 303 293 286 281 277 269 277 278 272 269 271 249 246 257 275 278 277 269 260 253 252 253 254 253 250 252 256 257 257 262 268 272 278 285 291 292 292 294 298 302 304 306 306 306 305 303 301 298 295 293
321 318 316 305 295 284 273 271 274 270 266 263 260 247 232 238 261 276 277 279 280 284 284 283 279 272 266 258 253 250 252 254 254 255 257 261 271 283 289 290 293 297 300 303 305 306 307 306 304 301 299 297 295 295
335 333 332 326 317 307 268 251 258 255 252 260 260 260 269 271 276 276 276 279 278 276 276 275 275 276 276 272 261 253 252 255 256 255 257 267 276 282 283 288 293 297 301 304 305 307 307 306 306 305 302 301 300 300
346 343 343 343 343 343 283 250 242 247 262 269 276 279 281 284 284 279 276 276 276 273 270 269 270 271 272 270 262 255 253 253 256 262 269 275 280 286 290 293 297 300 302 305 307 308 307 308 307 305 303 302 302 303
345 347 345 342 330 293 284 284 278 276 278 285 288 286 288 287 280 277 276 276 276 274 270 264 264 264 261 258 252 249 251 256 262 268 275 281 286 289 292 296 299 300 302 304 305 307 307 307 308 310 312 311 310 309
346 346 345 344 338 324 320 316 308 299 284 278 285 293 299 297 294 285 280 277 273 269 266 262 260 260 259 256 253 253 257 260 263 266 270 277 283 288 293 297 298 300 303 305 307 308 309 310 312 314 315 315 314 313
344 345 345 345 345 339 334 331 319 287 283 287 294 298 293 300 306 306 294 281 275 275 274 271 268 264 261 260 258 255 255 258 263 269 276 283 288 291 292 296 300 303 307 311 314 316 318 320 321 322 324 325 324 323